STARLINK-30411, 57828

Orbit data source: Space-Track

STARLINK-30411, 57828 is a payload satellite owned by SpaceX/Seattle (US) in LEO that was launched on Sat, 09 Sep 2023 UTC via an FALCON 9 launch vehicle from the Air Force Eastern Test Range (AFETR). Payload-class satellites include a variety of spacecraft equipped with specific instruments for various scientific and technological missions. These include communications satellites like Starlink; space stations such as the ISS; scientific satellites like the Hubble; Earth observation satellites from companies like Planet Labs, Umbra, and HawkEye 360; GPS; miniature CubeSats for education and research; and military/defense satellites.

Loading next visibility...
Identifier
57828, 2023-138W
Orbit
LEO
Country
Flag of USUS
Related business
Manufacturer
SpaceX/Seattle
Mission
Operational Commercial Communications
Bus & Motor
STARLINK V2M, Unknown motor
Mass
730 kg wet, ~700 kg dry
Launch date (UTC)
2023-09-09 (3 years ago)
Launch vehicle
FALCON 9
Launch site
Air Force Eastern Test Range (AFETR)
Object type
Payload
Rocket body
Debris
Shape & HBR
Box + 2 Pan, 17.7 m
Radar Cross Section
33.884 m², Large (>1 m²)

Expand to show TLE details & history
Last TLE update: 2 days ago

TLE from 2 days ago
0 STARLINK-30411
1 57828U 23138W   26170.97933595  .00000588  00000-0  30904-4 0  9994
2 57828  43.0029  16.3579 0001441 260.7615  99.3073 15.27583235154314
Epoch: 2026-06-19T23:30Z
TLE epoch observation values (Epoch: 2026-06-19T23:30:14.626Z)
Latitude
-0.00005°
Longitude
115.59636°
Altitude
482.975 km
Speed
7.626 km/s
True Right ascension
01h 05m 25s
True Declination
0° 00' 00"
Sunlit
Object was in daylight at epoch
Visualization orbit readout
Latitude
Unknown
Longitude
Unknown
Altitude
Unknown
Speed
Unknown
Apparent Right ascension
Unknown
Apparent Declination
Unknown
Sunlit
N/A
Visualization observer readout
Local Sidereal Time
21:32:37
Azimuth
Unknown
Elevation
Unknown
Doppler factor
Unknown
Orbital elements
Apogee altitude
485.973 km
Perigee altitude
483.995 km
Semi-major axis
6,863.121 km
Eccentricity
0.00014
Inclination
43.0029°
RAAN
16.3579°
Arg. of periapsis
260.7615°
True anomaly
99.32359°
Mean anomaly
99.3073°
Eccentric anomaly
99.31545°
Mean motion
3.81734 °/min
Orbital period
94.31 mins
BSTAR
0.000030904
Loading maneuver chart data...
Computing Atmospheric mass density...
Loading historical data...
Loading historical data...
Loading historical data...
Loading historical data...
Loading historical data...
Loading historical data...
Loading historical data...

Documentation

Showing up to 5 results
|